Regional Weather Roundup
Issued by NWS

Home | Current Version | Previous Version | Text Only | Print | Product List | Glossary Off
Versions: 1 2 3 4 5 6 7 8 9 10 11 12 13 14 15 16 17 18 19 20 21 22 23 24 25 26 27 28 29 30 31 32 33 34 35 36 37 38 39 40 41 42 43 44 45 46 47 48 49 50

000
ASUS43 KMPX 282210
RWRMN
WEATHER ROUNDUP FOR MINNESOTA
NATIONAL WEATHER SERVICE TWIN CITIES/CHANHASSEN MN
500 PM CDT THU AUG 28 2014


NOTE: "FAIR" INDICATES FEW OR NO CLOUDS BELOW 12,000 FEET WITH NO
SIGNIFICANT WEATHER AND/OR OBSTRUCTIONS TO VISIBILITY. N/A MEANS
CURRENT SKY AND/OR WEATHER CONDITIONS ARE NOT AVAILABLE.

MNZ060>063-068>070-282300-
   Twin Cities Metro

CITY           SKY/WX    TMP DP  RH WIND       PRES   REMARKS
TWIN CITIES    CLOUDY    69  64  84 SE10      29.97F
ST PAUL        CLOUDY    69  64  84 SE13      29.98F
CRYSTAL        LGT RAIN  70  63  78 E9        29.96F
BLAINE         CLOUDY    70  66  88 E7        29.98F
LAKEVILLE      CLOUDY    66  64  94 SE9       29.96F
EDEN PRAIRIE   CLOUDY    69  64  84 SE12      29.95F
SOUTH ST PAUL  CLOUDY    69  64  84 SE5       29.97F
LAKE ELMO      CLOUDY    68  64  88 SE6       29.99F
$$
MNZ001>005-007-008-013>017-022>024-027-028-282300-
   Northwest Minnesota

CITY           SKY/WX    TMP DP  RH WIND       PRES   REMARKS
BEMIDJI        CLOUDY    71  59  66 S10       29.95F
HALLOCK        MOSUNNY   75  66  73 S16       29.84F
ROSEAU         PTSUNNY   73  64  73 S12       29.90S
WARROAD        CLOUDY    72  64  78 S10       29.91F
THIEF RVR FALL CLOUDY    68  64  88 S9        29.91F
CROOKSTON      PTSUNNY   72  64  78 S13       29.90F
FOSSTON        CLOUDY    70  61  73 S8        29.93F
DETROIT LAKES  CLOUDY    70  61  73 S10       29.95F
MOORHEAD       CLOUDY    72  68  88 S8        29.92S
PARK RAPIDS    CLOUDY    70  60  70 SE12      29.96F
MAHNOMEN       CLOUDY    70  62  75 S8        29.92F
$$
MNZ006-009>011-018-025>026-282300-
   North Central Minnesota

CITY           SKY/WX    TMP DP  RH WIND       PRES   REMARKS
BAUDETTE       CLOUDY    72  60  66 S12       29.92F
FLAG ISLAND    PTSUNNY   72  64  78 S10       29.89F
INTL FALLS     LGT RAIN  69  60  73 CALM      29.96F
WASKISH        CLOUDY    70  63  78 S8        29.95F
BIG FORK       PTSUNNY   68  63  83 CALM      29.98F
LONGVILLE      CLOUDY    70  61  73 SE6       29.97F
GRAND RAPIDS   CLOUDY    70  57  64 SE10      29.99S
CRANE LAKE     PTSUNNY   72  55  56 S3        29.99F
ORR            PTSUNNY   70  55  60 S3        29.96F
COOK           PTSUNNY   72  55  56 SE5       29.99F
WALKER         MOCLDY    70  61  73 SE7       29.96F
$$
MNZ012-019>021-037-282300-
   Northeast Minnesota

CITY           SKY/WX    TMP DP  RH WIND       PRES   REMARKS
DULUTH         PTSUNNY   68  55  63 E10       30.02F
ELY            PTSUNNY   72  52  49 S5        30.01S
HIBBING        CLOUDY    74  57  55 SE7       29.99F
EVELETH        PTSUNNY   72  55  56 SE5       30.01F
DULUTH HARBOR  PTSUNNY   64  59  82 NE8       30.02F
TWO HARBORS    PTSUNNY   64  54  68 E8        30.01F
SILVER BAY     PTSUNNY   64  57  77 NE6       30.02F
GRAND MARAIS     N/A     62  57  83 CALM      30.04F
G MARAIS ARPRT MOSUNNY   64  48  55 SE5       30.07F
$$
MNZ029>031-032-039>041-046>048-054>057-064-282300-
   West Central Minnesota

CITY           SKY/WX    TMP DP  RH WIND       PRES   REMARKS
FERGUS FALLS   DRIZZLE   66  64  94 SE7       29.93F
WHEATON        CLOUDY    64  63  94 E9        29.92F
MORRIS         LGT RAIN  66  64  94 SE12      29.92S
ALEXANDRIA     LGT RAIN  66  63  90 SE9       29.96F
ELBOW LAKE     DRIZZLE   67  64  89 SE9       29.92F
WADENA         LGT RAIN  66  63  88 SE5       29.96S
GLENWOOD       RAIN      66  64  94 E8        29.95F
APPLETON       CLOUDY    66  64  94 SE7       29.91S FOG
BENSON         LGT RAIN  66  64  94 SE8       29.92F
ORTONVILLE     DRIZZLE   66  64  94 SE8       29.91S
MADISON        DRIZZLE   70  66  88 SE10      29.91S
WILLMAR        DRIZZLE   64  63  94 E10       29.95F
$$
MNZ033>034-036-042>043-049>051-058-059-282300-
   Central Minnesota

CITY           SKY/WX    TMP DP  RH WIND       PRES   REMARKS
ST CLOUD       LGT RAIN  70  63  78 SE7       29.96F
SAUK CENTRE    LGT RAIN  66  64  92 SE7       29.95F
PAYNESVILLE    LGT RAIN  63  62  97 E9        29.96F
AITKIN         CLOUDY    73  63  68 SE7       29.97F
PINE RIVER     CLOUDY    70  63  78 SE7       30.01S
BRAINERD       CLOUDY    69  60  73 SE6       29.97F
STAPLES        LGT RAIN  66  63  88 CALM      29.96F
LONG PRAIRIE   LGT RAIN  64  63  94 E6        29.96F
LITTLE FALLS   LGT RAIN  70  59  68 SE5       29.96F
LITCHFIELD     DRIZZLE   66  66 100 E10       29.96F
BUFFALO        CLOUDY    68  63  84 E6        29.97F
MAPLE LAKE     DRIZZLE   68  64  87 E5        29.97F
$$
MNZ037-044-045-052-053-282300-
   East Central Minnesota

CITY           SKY/WX    TMP DP  RH WIND       PRES   REMARKS
PRINCETON      CLOUDY    72  63  73 E8        29.98S
MORA           CLOUDY    70  61  73 SE5       29.99F
CAMBRIDGE      DRIZZLE   72  61  68 SE7       29.96F
RUSH CITY      CLOUDY    70  61  74 SE6       29.99F
MOOSE LAKE     CLOUDY    70  57  64 SE5       29.98F
HINCKLEY       CLOUDY    72  61  68 SE5       29.99F
CLOQUET        CLOUDY    70  55  60 E7        30.01F
MCGREGOR       CLOUDY    70  61  73 SE6       29.99F
$$
MNZ071>073-080-081-089-090-097-098-282300-
   Southwest Minnesota

CITY           SKY/WX    TMP DP  RH WIND       PRES   REMARKS
MONTEVIDEO     DRIZZLE   64  64 100 S10       29.92F
GRANITE FALLS  CLOUDY    66  66  99 E7        29.93F FOG
CANBY          LGT RAIN  66  65  96 E7        29.91F
MARSHALL       CLOUDY    68  64  88 SE9       29.89F
REDWOOD FALLS  CLOUDY    68  66  93 E7        29.91F
OLIVIA         CLOUDY    68  64  88 E7        29.92F
PIPESTONE      CLOUDY    70  68  94 SE8       29.89F
WINDOM         CLOUDY    70  66  88 E9        29.91F
WORTHINGTON    CLOUDY    70  66  88 SE9       29.91F
JACKSON        CLOUDY    70  64  83 SE8       29.92F
TRACY          CLOUDY    69  68  95 E7        29.90F
SLAYTON        CLOUDY    69  67  94 CALM      29.91F
$$
MNZ065>067-074>077-082>085-091>093-282300-
   South Central Minnesota

CITY           SKY/WX    TMP DP  RH WIND       PRES   REMARKS
MANKATO        CLOUDY    68  63  83 SE12      29.94F
NEW ULM        PTSUNNY   70  70 100 SE8       29.92F
ST JAMES       CLOUDY    70  66  88 E7        29.93F
FAIRMONT       CLOUDY    66  63  88 SE12      29.92F
GLENCOE        CLOUDY    70  64  81 E12       29.94F
FARIBAULT      LGT RAIN  70  63  78 E6        29.96F
OWATONNA       RAIN      66  64  94 E7        29.96F
WASECA         HVY RAIN  63  59  88 E7        29.97S
ALBERT LEA     RAIN      64  64 100 NW5       29.97R
$$
MNZ078>079-086>088-094>096-282300-
   Southeast Minnesota

CITY           SKY/WX    TMP DP  RH WIND       PRES   REMARKS
ROCHESTER      HVY RAIN  64  63  96 SE12      29.99F FOG
RED WING       RAIN      66  64  94 SE9       29.97F
STANTON        CLOUDY    67  64  88 E7        29.96S FOG
DODGE CENTER   RAIN      64  64 100 E8        29.98S
WINONA         CLOUDY    70  66  88 SE7       29.99S
AUSTIN         RAIN      64  63  94 E7        29.96S
PRESTON        RAIN      64  64 100 CALM      29.99S
$$
ABBREVIATIONS USED IN REMARKS
   TC - TEMPERATURES IN CELSIUS
  WCI - WIND CHILL INDEX
   HX - HEAT INDEX
  VSB - VISIBILITY
$$



USA.gov is the U.S. government's official web portal to all federal, state and local government web resources and services.